Location: Unspecified
(0.0000°N, 0.0000°E)
Time: 04:57:24

STARS - Pass Details

Date: 14 December 2017
Orbit: 625 x 641 km, 98.3° (Epoch: 24 March)

Event Time Altitude Azimuth Distance (km) Brightness Sun altitude
Rises 18:13:05 0° 351° (N) 2,894 ? -4.2°
Reaches altitude 10° 18:15:33 10° 338° (NNW) 1,992 ? -4.7°
Maximum altitude 18:19:07 25° 282° (WNW) 1,259 ? -5.6°
Drops below altitude 10° 18:22:44 10° 226° (SW) 2,007 ? -6.4°
Sets 18:25:14 0° 213° (SSW) 2,920 ? -7.0°
